International Skating Union - Official Site

ISU World Cup Speed Skating Heerenveen
November 10-12, 2017

Draw | Lap Times | Index | World Cup

Referee: Daniel  CABELDUC  (SWE)
Starter: Tom Vidar  JOHANSSON  (NOR)
StartTime: EndTime: Air Temp: Ice Temp: Humidity:
10:50 11:38 14.6℃ -12.9℃ 43%
Result 3000m Ladies Division B
Rankings as of Nov 12 2017 6:01PM
Rank: No.: Name: Nation: Time: Behind: Points:
1 245 Ayaka  Kikuchi JPN JPN 4:06.17200m - 19.78 - (19.7)
600m - 50.83 - (31.0)
1000m - 1:22.33 - (31.5)
1400m - 1:54.29 - (31.9)
1800m - 2:26.61 - (32.3)
2200m - 2:59.42 - (32.8)
2600m - 3:32.64 - (33.2)
3000m - 4:06.17 - (33.5)
32
2 298 Olga  Graf RUS RUS 4:06.73200m - 20.88 - (20.8)
600m - 52.43 - (31.5)
1000m - 1:23.91 - (31.4)
1400m - 1:55.86 - (31.9)
1800m - 2:28.01 - (32.1)
2200m - 3:00.32 - (32.3)
2600m - 3:33.28 - (32.9)
3000m - 4:06.73 - (33.4)
0.56 27
3 247 Fuyo  Matsuoka JPN JPN 4:07.87200m - 20.85 - (20.8)
600m - 52.32 - (31.4)
1000m - 1:24.06 - (31.7)
1400m - 1:56.18 - (32.1)
1800m - 2:28.81 - (32.6)
2200m - 3:01.57 - (32.7)
2600m - 3:34.69 - (33.1)
3000m - 4:07.87 - (33.1)
1.70 23
4 313 Carlijn  Schoutens USA USA 4:08.60200m - 20.87 - (20.8)
600m - 52.07 - (31.1)
1000m - 1:24.11 - (32.0)
1400m - 1:56.44 - (32.3)
1800m - 2:29.18 - (32.7)
2200m - 3:02.07 - (32.8)
2600m - 3:35.36 - (33.2)
3000m - 4:08.60 - (33.2)
2.43 19
5 312 Mia  Manganello USA USA 4:09.29200m - 20.65 - (20.6)
600m - 52.06 - (31.4)
1000m - 1:24.36 - (32.2)
1400m - 1:56.52 - (32.1)
1800m - 2:28.98 - (32.4)
2200m - 3:01.83 - (32.8)
2600m - 3:35.03 - (33.1)
3000m - 4:09.29 - (34.2)
3.12 15
6 253 Nana  Takahashi JPN JPN 4:09.30200m - 20.21 - (20.2)
600m - 51.15 - (30.9)
1000m - 1:22.81 - (31.6)
1400m - 1:54.86 - (32.0)
1800m - 2:27.36 - (32.5)
2200m - 3:00.21 - (32.8)
2600m - 3:34.27 - (34.0)
3000m - 4:09.30 - (35.0)
3.13 11
7 212 Brianne  Tutt CAN CAN 4:09.47200m - 20.67 - (20.6)
600m - 52.97 - (32.2)
1000m - 1:25.19 - (32.2)
1400m - 1:57.18 - (31.9)
1800m - 2:29.46 - (32.2)
2200m - 3:02.31 - (32.8)
2600m - 3:35.57 - (33.2)
3000m - 4:09.47 - (33.8)
3.30 9
8 293 Luiza  Zlotkowska POL POL 4:09.69200m - 20.20 - (20.1)
600m - 51.59 - (31.3)
1000m - 1:23.80 - (32.2)
1400m - 1:56.20 - (32.4)
1800m - 2:28.74 - (32.5)
2200m - 3:01.74 - (33.0)
2600m - 3:35.34 - (33.5)
3000m - 4:09.69 - (34.3)
3.52 7
9 248 Misaki  Oshigiri JPN JPN 4:09.88200m - 19.90 - (19.8)
600m - 51.34 - (31.4)
1000m - 1:23.26 - (31.9)
1400m - 1:55.86 - (32.5)
1800m - 2:28.92 - (33.0)
2200m - 3:02.32 - (33.4)
2600m - 3:35.99 - (33.6)
3000m - 4:09.88 - (33.8)
3.71 6
10 287 Katarzyna  Bachleda-Curus POL POL 4:09.92200m - 20.23 - (20.2)
600m - 51.31 - (31.0)
1000m - 1:22.75 - (31.4)
1400m - 1:54.79 - (32.0)
1800m - 2:27.53 - (32.7)
2200m - 3:01.06 - (33.5)
2600m - 3:35.05 - (33.9)
3000m - 4:09.92 - (34.8)
3.75 5
11 228 Nikola  Zdráhalova CZE CZE 4:10.39200m - 19.71 - (19.7)
600m - 50.62 - (30.9)
1000m - 1:21.80 - (31.1)
1400m - 1:54.21 - (32.4)
1800m - 2:27.25 - (33.0)
2200m - 3:01.14 - (33.8)
2600m - 3:35.65 - (34.5)
3000m - 4:10.39 - (34.7)
4.22 4
12 203 Jelena  Peeters BEL BEL 4:10.44200m - 20.34 - (20.3)
600m - 52.36 - (32.0)
1000m - 1:24.99 - (32.6)
1400m - 1:57.77 - (32.7)
1800m - 2:30.83 - (33.0)
2200m - 3:03.81 - (32.9)
2600m - 3:36.99 - (33.1)
3000m - 4:10.44 - (33.4)
4.27 3
13 283 Sofie Karoline  Haugen NOR NOR 4:10.57200m - 21.03 - (21.0)
600m - 52.80 - (31.7)
1000m - 1:24.30 - (31.5)
1400m - 1:55.92 - (31.6)
1800m - 2:27.93 - (32.0)
2200m - 3:01.13 - (33.1)
2600m - 3:35.56 - (34.4)
3000m - 4:10.57 - (35.0)
4.40 2
14 210 Josie  Morrison CAN CAN 4:10.99200m - 21.03 - (21.0)
600m - 53.65 - (32.6)
1000m - 1:26.62 - (32.9)
1400m - 1:59.93 - (33.3)
1800m - 2:32.99 - (33.0)
2200m - 3:05.68 - (32.6)
2600m - 3:38.28 - (32.5)
3000m - 4:10.99 - (32.7)
4.82 1
15 291 Katarzyna  Wozniak POL POL 4:11.09200m - 20.29 - (20.2)
600m - 51.31 - (31.0)
1000m - 1:22.78 - (31.4)
1400m - 1:54.61 - (31.8)
1800m - 2:27.03 - (32.4)
2200m - 3:00.49 - (33.4)
2600m - 3:35.08 - (34.5)
3000m - 4:11.09 - (36.0)
4.92 0
16 216 Jiachen  Hao CHN CHN 4:11.61200m - 19.89 - (19.8)
600m - 51.25 - (31.3)
1000m - 1:23.08 - (31.8)
1400m - 1:55.93 - (32.8)
1800m - 2:29.22 - (33.2)
2200m - 3:03.44 - (34.2)
2600m - 3:37.60 - (34.1)
3000m - 4:11.61 - (34.0)
5.44 0
17 290 Magdalena  Czyszczon POL POL 4:12.05200m - 20.89 - (20.8)
600m - 51.87 - (30.9)
1000m - 1:23.62 - (31.7)
1400m - 1:56.72 - (33.0)
1800m - 2:30.36 - (33.6)
2200m - 3:03.70 - (33.3)
2600m - 3:37.53 - (33.8)
3000m - 4:12.05 - (34.5)
5.88 0
18 233 Stephanie  Beckert GER GER 4:12.59200m - 21.85 - (21.8)
600m - 54.67 - (32.8)
1000m - 1:27.41 - (32.7)
1400m - 2:00.34 - (32.9)
1800m - 2:33.23 - (32.8)
2200m - 3:06.29 - (33.0)
2600m - 3:39.82 - (33.5)
3000m - 4:12.59 - (32.7)
6.42 0
19 215 Mei  Han CHN CHN 4:14.36200m - 20.95 - (20.9)
600m - 52.85 - (31.9)
1000m - 1:24.95 - (32.1)
1400m - 1:57.21 - (32.2)
1800m - 2:30.33 - (33.1)
2200m - 3:04.58 - (34.2)
2600m - 3:39.62 - (35.0)
3000m - 4:14.36 - (34.7)
8.19 0
20 262 Ji Woo  Park KOR KOR 4:14.96200m - 20.45 - (20.4)
600m - 52.65 - (32.2)
1000m - 1:25.40 - (32.7)
1400m - 1:58.50 - (33.0)
1800m - 2:32.00 - (33.5)
2200m - 3:06.21 - (34.2)
2600m - 3:40.73 - (34.5)
3000m - 4:14.96 - (34.2)
8.79 0
21 288 Karolina  Bosiek POL POL 4:15.41200m - 20.09 - (20.0)
600m - 51.14 - (31.0)
1000m - 1:22.83 - (31.6)
1400m - 1:55.43 - (32.6)
1800m - 2:29.18 - (33.7)
2200m - 3:03.69 - (34.5)
2600m - 3:39.09 - (35.4)
3000m - 4:15.41 - (36.3)
9.24 0
22 218 Dan  Li CHN CHN 4:15.45200m - 21.03 - (21.0)
600m - 53.11 - (32.0)
1000m - 1:25.06 - (31.9)
1400m - 1:58.12 - (33.0)
1800m - 2:31.32 - (33.1)
2200m - 3:05.97 - (34.6)
2600m - 3:40.59 - (34.6)
3000m - 4:15.45 - (34.8)
9.28 0
23 230 Saskia  Alusalu EST EST 4:17.06200m - 20.37 - (20.3)
600m - 51.30 - (30.9)
1000m - 1:23.00 - (31.7)
1400m - 1:55.80 - (32.7)
1800m - 2:29.04 - (33.2)
2200m - 3:03.37 - (34.3)
2600m - 3:39.25 - (35.8)
3000m - 4:17.06 - (37.8)
10.89 0
24 226 Natálie  Kerschbaummayr CZE CZE 4:17.07200m - 21.39 - (21.3)
600m - 53.96 - (32.5)
1000m - 1:26.82 - (32.8)
1400m - 2:00.28 - (33.4)
1800m - 2:33.80 - (33.5)
2200m - 3:07.71 - (33.9)
2600m - 3:42.14 - (34.4)
3000m - 4:17.07 - (34.9)
10.90 0
25 229 Elena Moeller  Rigas DEN DEN 4:17.25200m - 20.78 - (20.7)
600m - 52.76 - (31.9)
1000m - 1:25.31 - (32.5)
1400m - 1:58.51 - (33.2)
1800m - 2:32.56 - (34.0)
2200m - 3:07.21 - (34.6)
2600m - 3:42.04 - (34.8)
3000m - 4:17.25 - (35.2)
11.08 0
26 285 Camilla  Lund NOR NOR 4:17.29200m - 20.91 - (20.9)
600m - 52.57 - (31.6)
1000m - 1:24.84 - (32.2)
1400m - 1:57.87 - (33.0)
1800m - 2:31.68 - (33.8)
2200m - 3:06.32 - (34.6)
2600m - 3:41.62 - (35.3)
3000m - 4:17.29 - (35.6)
11.12 0
27 238 Michelle  Uhrig GER GER 4:17.82200m - 20.53 - (20.5)
600m - 52.66 - (32.1)
1000m - 1:24.84 - (32.1)
1400m - 1:57.43 - (32.5)
1800m - 2:31.15 - (33.7)
2200m - 3:05.77 - (34.6)
2600m - 3:41.54 - (35.7)
3000m - 4:17.82 - (36.2)
11.65 0
28 201 Viola  Feichtner AUT AUT 4:19.58200m - 21.44 - (21.4)
600m - 54.57 - (33.1)
1000m - 1:27.94 - (33.3)
1400m - 2:01.52 - (33.5)
1800m - 2:35.36 - (33.8)
2200m - 3:09.76 - (34.3)
2600m - 3:44.42 - (34.6)
3000m - 4:19.58 - (35.1)
13.41 0
29 242 Gloria  Malfatti ITA ITA 4:21.64200m - 20.74 - (20.7)
600m - 53.47 - (32.7)
1000m - 1:26.37 - (32.9)
1400m - 2:00.09 - (33.7)
1800m - 2:34.28 - (34.1)
2200m - 3:09.28 - (35.0)
2600m - 3:45.04 - (35.7)
3000m - 4:21.64 - (36.5)
15.47 0
30 256 Yelena  Urvantseva KAZ KAZ 4:23.07200m - 20.71 - (20.7)
600m - 53.58 - (32.8)
1000m - 1:27.07 - (33.4)
1400m - 2:00.93 - (33.8)
1800m - 2:35.13 - (34.1)
2200m - 3:10.08 - (34.9)
2600m - 3:46.07 - (35.9)
3000m - 4:23.07 - (37.0)
16.90 0
31 204 Tatsiana  Mikhailava BLR BLR 4:26.08200m - 20.75 - (20.7)
600m - 54.06 - (33.3)
1000m - 1:28.22 - (34.1)
1400m - 2:02.71 - (34.4)
1800m - 2:37.58 - (34.8)
2200m - 3:12.82 - (35.2)
2600m - 3:49.24 - (36.4)
3000m - 4:26.08 - (36.8)
19.91 0
32 306 Ramona  Härdi SUI SUI 4:27.32200m - 21.48 - (21.4)
600m - 55.16 - (33.6)
1000m - 1:29.23 - (34.0)
1400m - 2:03.71 - (34.4)
1800m - 2:38.60 - (34.8)
2200m - 3:14.28 - (35.6)
2600m - 3:50.55 - (36.2)
3000m - 4:27.32 - (36.7)
21.15 0
33 232 Gemma  Cooper GBR GBR 4:31.30200m - 22.04 - (22.0)
600m - 55.21 - (33.1)
1000m - 1:29.57 - (34.3)
1400m - 2:04.44 - (34.8)
1800m - 2:39.92 - (35.4)
2200m - 3:16.27 - (36.3)
2600m - 3:53.61 - (37.3)
3000m - 4:31.30 - (37.6)
25.13 0